Вернуться в каталог

VULCAN CENTAUR R/B

АктивенVLEO
NORAD 61448·ROCKET BODY·🇺🇸 United States

Запущен Oct 4, 2024 с Cape Canaveral Space Force Station

Loading…

Ближайшие Пролёты (ближайшие 24 часа)

TLE

УстаревшееSource: Space-Track

Эпоха: Oct 4, 2024, 11:40 UTC

1 61448U 24179A   24278.48676111  .00000148  00000-0  00000+0 0  9995
2 61448  30.0000 357.3088 0004000 321.8000 177.5900 15.23529867    07

Отслеживайте VULCAN CENTAUR R/B в реальном времени с AllMySat

Download on the App Store